This is the latest recevied weather packets stored in our database for station/object N4BBA. If no packets are shown the sender has not sent any weather packets the latest 10 day(s).
| Time | Temp. | Humidity | Pressure | Rain* | Wind** | Luminosity | Snow |
|---|---|---|---|---|---|---|---|
| 1778074329 | 20° C | 75% | 1014.8 hPa | 0 mm | - | 186 W/m² | - |
| 1778074027 | 20° C | 76% | 1014.6 hPa | 0 mm | - | 160 W/m² | - |
| 1778073723 | 20° C | 76% | 1014.8 hPa | 0 mm | - | 135 W/m² | - |
| 1778073421 | 20° C | 76% | 1014.8 hPa | 0 mm | - | 129 W/m² | - |
| 1778073117 | 20° C | 77% | 1014.7 hPa | 0 mm | - | 176 W/m² | - |
| 1778072814 | 20° C | 77% | 1014.2 hPa | 0 mm | - | 179 W/m² | - |
| 1778072511 | 20° C | 77% | 1014.1 hPa | 0 mm | - | 179 W/m² | - |
| 1778072209 | 20° C | 78% | 1014.1 hPa | 0 mm | - | 195 W/m² | - |
| 1778071907 | 20° C | 79% | 1014.3 hPa | 0 mm | - | 227 W/m² | - |
| 1778071604 | 19.44° C | 81% | 1014.2 hPa | 0 mm | - | 275 W/m² | - |
| 1778071302 | 18.89° C | 81% | 1014.2 hPa | 0 mm | - | 181 W/m² | - |
| 1778071000 | 18.89° C | 82% | 1014.3 hPa | 0 mm | - | 169 W/m² | - |
| 1778070698 | 18.33° C | 82% | 1014.3 hPa | 0 mm | - | 190 W/m² | - |
| 1778070394 | 18.33° C | 83% | 1014.3 hPa | 0 mm | - | 176 W/m² | - |
| 1778070092 | 18.33° C | 83% | 1014 hPa | 0 mm | - | 150 W/m² | - |
| 1778069790 | 17.78° C | 83% | 1014.1 hPa | 0 mm | - | 118 W/m² | - |
| 1778069486 | 17.78° C | 84% | 1014.2 hPa | 0 mm | - | 120 W/m² | - |
| 1778069184 | 18.33° C | 84% | 1014.1 hPa | 0 mm | - | 113 W/m² | - |
| 1778068881 | 17.78° C | 84% | 1014 hPa | 0 mm | - | 129 W/m² | - |
| 1778068580 | 17.78° C | 85% | 1014.1 hPa | 0 mm | - | 112 W/m² | - |
| 1778068277 | 17.78° C | 85% | 1014.1 hPa | 0 mm | - | 65 W/m² | - |
| 1778067974 | 17.78° C | 85% | 1014 hPa | 0 mm | - | 48 W/m² | - |
| 1778067672 | 17.22° C | 86% | 1014.1 hPa | 0 mm | - | 83 W/m² | - |
| 1778067370 | 17.22° C | 86% | 1014.2 hPa | 0 mm | - | 80 W/m² | - |
| 1778067067 | 17.22° C | 87% | 1014.2 hPa | 0 mm | - | 65 W/m² | - |
* Rain latest hour (hover to see other rain measurements)
** Current wind speed in m/s (hover to see current wind gust speed)